Погода в Феодосии

Россия / Республика Крым     45°01′55″N   35°22′52″E
темп.,
°C
ветер,
м/с
пор.,
м/с
влажн.,
%
обл.,
%
осадки,
мм/ч
давл.,
гПа
погр.,
м
8 марта, пн
пн800:00+4зюз555096 0.0 1022902
03:00+3зсз445348 0.0 1021538
06:00+3юз33490 0.0 1019653
09:00+4юз45543 0.0 1018600
12:00+5юз565518 0.0 1019989
15:00+6юз996520 0.0 1017978
18:00+6юз996927 0.0 10161056
21:00+6юз887062 0.1 1016722
9 марта, вт
вт900:00+6зюз897188 0.1 1016794
03:00+5з587494 0.8 1017814
06:00+4сз687412 0.0 1017479
09:00+3сз67776 0.0 1018512
12:00+4ссз676488 0.0 10201061
15:00+4ссз786894 0.0 10201023
18:00+3с775764 0.0 1020491
21:00+3с564835 0.0 1023862
10 марта, ср
ср1000:00+3ссз45490 0.0 1023865
03:00+2ссв45600 0.0 1024623
06:00+1ссв446276 0.0 1024750
09:00+1св546288 0.0 1025933
12:00+2всв4551100 0.0 10241005
15:00+3всв4546100 0.0 10231304
18:00+2всв8861100 0.0 1022979
21:00+2всв8963100 0.0 1022861
11 марта, чт
чт1100:00+2всв91063100 0.0 1021965
03:00+2всв91063100 0.0 1022870
06:00+1св101264100 0.0 1021956
09:00+1св111361100 0.0 10221029
12:00+2всв101250100 0.0 10231226
15:00+2св101252100 0.0 10231290
18:00+2св111257100 0.0 10231144
21:00+1св10126296 0.0 10251261
12 марта, пт
пт1200:000св10116429 0.0 10261117
03:00−1св9106215 0.0 10271063
06:00−2св910610 0.0 10281098
09:00−2св78600 0.0 10301070
12:00−1св55490 0.0 10301177
15:00+1св44420 0.0 10301195
18:000св65470 0.0 1030835
21:000в555011 0.0 1030675